Location: Владивосток
(43.1151°N, 131.8856°E)
Time: 07:11:47
(UTC+10:00)

EO-88 - Pass Details

Date: 01 July 2022
Orbit: 453 x 461 km, 97.3° (Epoch: 13 August)

Event Time Altitude Azimuth Distance (km) Brightness Sun altitude
Exits shadow 22:32:46 25° 158° (SSE) 992 ? -13.9°
Maximum altitude 22:34:42 75° 76° (ENE) 491 ? -14.1°
Drops below altitude 10° 22:38:12 10° 352° (N) 1,634 ? -14.5°
Sets 22:40:16 0° 350° (N) 2,514 ? -14.7°
